Retour au catalogue

FENGYUN 1C DEB

ActifPO
NORAD 31630·DEBRIS·🇨🇳 China

Lancé May 10, 1999 depuis Taiyuan Satellite Launch Center

Loading…

Prochains Passages (prochaines 24 heures)

TLE

FraisSource: Space-Track

Époque: Sep 12, 2026, 06:43 UTC

1 31630U 99025CAL 26255.28011143  .00019229  00000-0  75372-3 0  9998
2 31630  98.0982  84.5067 0135928 146.2998 214.6970 15.17576391 27113

Suivez FENGYUN 1C DEB en temps réel avec AllMySat

Download on the App Store